Regional Weather Roundup
Issued by NWS Jackson, KY

Home | Current Version | Previous Version | Text Only | Print | Product List | Glossary Off
Versions: 1 2 3 4 5 6 7 8 9 10 11 12 13 14 15 16 17 18 19 20 21 22 23 24 25 26 27 28 29 30 31 32 33 34 35 36 37 38 39 40 41 42 43 44 45 46 47 48 49 50

000
ASUS43 KJKL 281110
RWRJKL

EAST KENTUCKY HOURLY WEATHER ROUNDUP
NATIONAL WEATHER SERVICE JACKSON KY
700 AM EDT SUN MAY 28 2017

NOTE: "FAIR" INDICATES FEW OR NO CLOUDS BELOW 12,000 FEET WITH
NO SIGNIFICANT WEATHER AND/OR OBSTRUCTIONS TO VISIBILITY.

* THESE REPORTS ARE NOT UNDER NWS QUALITY CONTROL AND MAY NOT
  REPORT WEATHER SUCH AS PRECIPITATION AND FOG.

KYZ079-080-083-085-087-088-110-112-115-119-120-281200
...EASTERN KENTUCKY...

CITY           SKY/WX    TMP DP  RH WIND       PRES   REMARKS
JACKSON        CLOUDY    62  61  96 CALM      29.87R
LONDON         CLOUDY    61  59  93 CALM      29.85S
SOMERSET*      CLOUDY    59  59 100 CALM      29.87R
MONTICELLO*    MOCLDY    62  61  96 NE9       29.87R
WILLIAMSBURG*  CLOUDY    61  61 100 SE6       29.86R
MIDDLESBORO*   CLOUDY    61  61 100 CALM      29.88R
HARLAN APT*    CLOUDY    61  59  94 CALM      29.88F VSB 3/4
PIKE CO APT*   MOCLDY    62  62 100 SE3       29.87S
BIG SANDY APT* CLOUDY    64  63  99 S3        29.87S
MOREHEAD APT*  SUNNY     61  59  94 CALM      29.85R
ASHLAND*       MOCLDY    64  63  94 CALM      29.82R
$$

KYZ035-036-041-042-044-050-067-078-099-281200
...CENTRAL KENTUCKY...

CITY           SKY/WX    TMP DP  RH WIND       PRES   REMARKS
MT STERLING*   PTCLDY    59  59 100 SW5       29.86R
FLEMING/MASON* PTCLDY    60  59  97 SW5       29.84R
DANVILLE*      CLOUDY    61  61 100 SW6       29.86R
LEXINGTON      MOCLDY    61  58  90 SE3       29.83R
FRANKFORT      PTCLDY    63  60  90 S8        29.79S
LOUISVILLE     CLOUDY    65  62  90 S6        29.79R
LEBANON*         N/A     63  63 100 S8        29.82F
GLASGOW*       CLOUDY    63  63 100 NW3       29.85R
BOWLING GREEN  CLOUDY    65  63  93 NW3       29.83R
$$

KYZ091>093-OHZ055-061-077-WVZ005-015-034-035-042-281200
...SOUTHERN OHIO/WEST VIRGINIA...

CITY           SKY/WX    TMP DP  RH WIND       PRES   REMARKS
COVINGTON      MOCLDY    62  61  96 S10       29.78S
COLUMBUS       CLOUDY    68  66  93 SE7       29.77S
DAYTON         CLOUDY    65  63  93 S10       29.77S
WILMINGTON     MOCLDY    63  62  97 SW9       29.79R
HUNTINGTON     MOCLDY    65  62  90 S5        29.84R
CHARLESTON     MOCLDY    68  62  81 SW7       29.84F
PINEVILLE*     CLOUDY    64  64  97 MISG      29.94S FOG
BECKLEY        CLOUDY    62  60  93 SW5       29.91S
BLUEFIELD      CLOUDY    58  57  97 W10       29.94R
LOGAN CO APT*  PTSUNNY   64  63  94 CALM      29.88R
$$

VAZ002-007-008-TNZ017-027-036-066-071-281200
...SOUTHWEST VIRGINIA/EAST TENNESSEE...

CITY           SKY/WX    TMP DP  RH WIND       PRES   REMARKS
WISE*          CLOUDY    61  61 100 CALM      29.92F
JONESVILLE*      N/A     63  61  94 E3        29.90F
ABINGDON*      LGT RAIN  63  63 100 W7        29.93S
BRISTOL        CLOUDY    62  61  96 S6        29.92F
MORRISTOWN*    PTSUNNY   61  61 100 S5        29.87F
SEVIERVILLE*   SUNNY     61  59  94 CALM      29.87F
KNOXVILLE      LGT RAIN  63  60  90 S12       29.83F
LAFOLLETTE*    CLOUDY    63  61  94 N5        29.90R
OAK RIDGE      CLOUDY    64  61  90 CALM      29.87R
CROSSVILLE     CLOUDY    60  59  96 SW5       29.87S
NASHVILLE      CLOUDY    65  62  90 S10       29.81F
$$

...KEY TO REMARKS...
VSB - VISIBILITY IN MILES
WCI - WIND CHILL INDEX
HX  - HEAT INDEX

$$



USA.gov is the U.S. government's official web portal to all federal, state and local government web resources and services.